Simultaneous Nadir Overpasses (SNOs) Predictions

Prediction of SNOs between METOP-B and NOAA-19 Satellite Orbit:

Table of predicted SNOs for the next 14.0 days since TLE Epoch: 7/6/2018
Index Date (METOP-B) Time (METOP-B) Lat,Lon (METOP-B) SZA (METOP-B ) Date (NOAA-19) Time (NOAA-19) Lat,Lon (NOAA-19) SZA (NOAA-19 ) Distance(km) Time Diff (sec)
1 07/09/2018 07:07:09 -78.46, -96.65 123.80 07/09/2018 07:06:05 -78.47, -96.65 123.80 1.02 64
2 07/09/2018 07:57:50 78.44, 70.58 56.18 07/09/2018 07:57:06 78.48, 70.56 56.21 3.67 44
3 07/09/2018 08:48:31 -78.44,-122.09 123.82 07/09/2018 08:48:06 -78.47,-122.12 123.80 2.66 25
4 07/09/2018 09:39:11 78.46, 45.36 56.22 07/09/2018 09:39:06 78.44, 45.33 56.19 3.21 5
5 07/09/2018 10:29:53 -78.42,-147.54 123.83 07/09/2018 10:30:06 -78.43,-147.36 123.82 4.05 13
6 07/09/2018 11:20:33 78.45, 19.91 56.20 07/09/2018 11:21:07 78.43, 19.86 56.19 1.98 34
7 07/09/2018 12:11:14 -78.45,-172.76 123.80 07/09/2018 12:12:07 -78.42,-172.83 123.81 3.02 53
8 07/09/2018 13:01:55 78.43, -5.54 56.19 07/09/2018 13:03:08 78.43, -5.61 56.20 1.62 73
9 07/20/2018 04:06:58 78.50, 128.58 57.91 07/20/2018 04:05:55 78.49, 128.63 57.90 1.42 63
10 07/20/2018 04:57:39 -78.51, -64.06 122.08 07/20/2018 04:56:53 -78.50, -64.18 122.09 2.72 46
11 07/20/2018 05:48:20 78.48, 103.13 57.90 07/20/2018 05:47:56 78.49, 103.16 57.91 0.97 24
12 07/20/2018 06:39:01 -78.49, -89.51 122.09 07/20/2018 06:38:53 -78.46, -89.42 122.11 3.30 8
13 07/20/2018 07:29:42 78.46, 77.68 57.89 07/20/2018 07:29:57 78.48, 77.68 57.92 2.30 15
14 07/20/2018 08:20:23 -78.47,-114.96 122.10 07/20/2018 08:20:54 -78.46,-114.90 122.10 1.68 31
15 07/20/2018 09:11:04 78.44, 52.23 57.88 07/20/2018 09:11:58 78.48, 52.21 57.93 3.89 54
16 07/20/2018 10:01:45 -78.45,-140.40 122.11 07/20/2018 10:02:55 -78.45,-140.37 122.09 0.85 70




NCC Satellite Simultaneous Nadir Overpasses (SNOs) Prediction Service
